This is the latest recevied weather packets stored in our database for station/object N3FWE. If no packets are shown the sender has not sent any weather packets the latest 10 day(s).
| Time | Temp. | Humidity | Pressure | Rain* | Wind** | Luminosity | Snow |
|---|---|---|---|---|---|---|---|
| 1787789414 | 25° C | 66% | 1016.9 hPa | 0 mm | - | - | - |
| 1787788814 | 25.56° C | 65% | 1017 hPa | 0 mm | - | - | - |
| 1787788214 | 26.11° C | 63% | 1017 hPa | 0 mm | - | - | - |
| 1787787614 | 26.11° C | 62% | 1016.8 hPa | 0 mm | - | - | - |
| 1787787014 | 26.67° C | 61% | 1016.9 hPa | 0 mm | - | - | - |
| 1787786414 | 26.67° C | 61% | 1016.9 hPa | 0 mm | - | - | - |
| 1787785814 | 26.67° C | 58% | 1017.2 hPa | 0 mm | - | - | - |
| 1787785214 | 27.22° C | 58% | 1017.3 hPa | 0 mm | - | - | - |
| 1787784614 | 27.22° C | 57% | 1017.3 hPa | 0 mm | - | - | - |
| 1787784014 | 27.22° C | 57% | 1017.4 hPa | 0 mm | - | - | - |
| 1787783414 | 27.22° C | 57% | 1017.4 hPa | 0 mm | - | - | - |
| 1787782814 | 27.78° C | 56% | 1017.5 hPa | 0 mm | - | - | - |
| 1787782214 | 27.78° C | 55% | 1017.6 hPa | 0 mm | - | - | - |
| 1787781615 | 28.33° C | 53% | 1017.6 hPa | 0 mm | - | - | - |
| 1787781014 | 28.33° C | 53% | 1017.7 hPa | 0 mm | - | - | - |
| 1787780414 | 28.89° C | 52% | 1017.6 hPa | 0 mm | - | - | - |
| 1787779813 | 28.89° C | 52% | 1017.6 hPa | 0 mm | - | - | - |
| 1787779216 | 28.89° C | 52% | 1017.6 hPa | 0 mm | - | - | - |
| 1787778612 | 28.89° C | 53% | 1017.6 hPa | 0 mm | - | - | - |
| 1787778013 | 28.89° C | 53% | 1017.6 hPa | 0 mm | - | - | - |
| 1787777412 | 28.89° C | 52% | 1017.5 hPa | 0 mm | - | - | - |
| 1787776814 | 28.89° C | 53% | 1017.5 hPa | 0 mm | - | - | - |
| 1787776214 | 28.89° C | 52% | 1017.5 hPa | 0 mm | - | - | - |
| 1787775612 | 29.44° C | 52% | 1017.7 hPa | 0 mm | - | - | - |
| 1787775012 | 28.89° C | 54% | 1017.8 hPa | 0 mm | - | - | - |
* Rain latest hour (hover to see other rain measurements)
** Current wind speed in m/s (hover to see current wind gust speed)